Temp
16 16 16 16 16 16 16 17 16 16 16 16 16 15 16 16 16 16 16 16 16 16 15 15 15 15 15 15 15 15 15 15 14 14 14 14 14 14 14 14 14 13 14
16 16 16 16 16 16 16 16 16 16 16 15 16 16 16 16 16 16 16 16 15 15 15 15 15 15 15 15 15 15 15 15 15 14 14 14 13 14 14 14 14 14 14
16 15 16 16 16 16 16 16 16 16 15 15 16 16 15 16 16 16 16 15 15 15 15 15 15 15 15 15 15 15 15 15 15 14 15 14 15 14 13 13 13 14 14
15 16 15 15 16 16 16 15 16 15 15 16 16 15 15 15 15 15 15 15 15 15 15 15 14 14 15 15 15 15 15 15 14 14 15 15 14 14 13 13 14 14 13
14 14 15 15 15 15 15 15 15 15 15 15 15 15 15 15 15 15 15 15 15 15 15 14 14 14 14 14 14 15 14 14 15 15 14 13 14 13 13 13 13 14 14
15 14 15 15 15 15 14 15 15 15 15 15 15 15 14 14 15 15 15 15 15 14 14 14 14 14 14 14 14 14 14 14 15 15 14 13 11 13 13 13 13 13 13
14 14 14 15 15 14 14 14 14 14 15 14 14 14 14 14 14 14 14 14 14 14 14 14 14 14 14 14 13 13 14 14 14 15 15 12 13 12 12 12 12 12 12
13 14 14 14 14 14 14 14 14 14 14 14 14 14 14 14 14 14 14 14 14 14 14 14 14 14 13 13 13 13 13 13 14 14 14 13 12 12 12 12 12 12 12
14 14 14 14 14 14 14 14 14 14 14 14 14 14 13 14 14 14 14 14 14 14 14 13 13 13 13 13 13 13 13 13 13 14 14 13 12 12 12 12 12 12 12
13 14 14 14 13 14 14 14 14 14 14 14 14 13 13 13 13 13 13 13 13 13 13 13 13 13 13 13 12 12 13 13 13 14 14 13 12 12 12 12 11 12 12
14 15 14 14 13 13 13 13 14 14 14 13 14 13 13 12 12 13 13 13 13 13 13 13 13 13 12 13 13 12 13 13 13 13 13 13 12 12 11 11 11 11 11
14 13 13 14 14 14 14 13 12 13 13 12 12 13 13 12 12 12 13 13 13 13 13 12 12 12 12 12 13 12 12 12 13 13 12 12 11 11 11 11 11 11 11
14 13 13 13 14 13 13 13 13 13 12 12 12 12 12 12 12 12 13 13 12 12 13 12 12 12 11 11 11 11 11 11 12 12 12 11 11 10 10 11 11 11 11
14 13 13 13 13 13 13 14 13 13 13 13 13 11 12 12 12 12 13 13 12 13 12 12 12 11 11 11 11 10 10 10 11 10 11 10 10 9 10 10 10 10 10
16 14 12 12 12 12 13 12 12 12 13 13 12 13 12 12 12 12 12 11 12 12 12 12 12 11 11 11 10 10 10 10 10 10 10 10 9 9 9 9 9 9 9
16 15 13 13 12 13 12 12 12 13 13 13 12 12 12 12 13 12 11 11 11 10 10 10 10 10 10 10 10 10 9 9 9 9 9 9 9 8 8 8 8 8 8
17 15 14 13 13 12 12 13 13 13 13 12 12 12 12 11 11 11 11 11 10 10 10 10 10 10 10 10 10 9 9 9 9 9 8 8 8 8 7 7 7 7 7
17 15 14 13 12 13 14 13 13 13 12 11 12 12 12 12 11 11 10 9 10 9 9 9 9 9 8 9 9 8 8 8 8 8 8 8 7 7 6 6 5 5 6
17 15 13 12 12 13 13 13 12 12 12 11 11 11 11 11 11 9 9 8 9 8 8 8 8 7 8 8 8 8 7 8 8 7 7 8 6 6 5 4 4 4 3
17 15 13 12 12 12 13 12 11 11 10 10 10 9 9 9 10 9 8 9 9 8 8 7 6 6 7 7 7 6 6 7 7 7 6 7 6 6 5 4 3 3 3
16 15 12 13 12 12 11 11 11 10 10 10 10 9 9 9 9 9 8 8 7 7 6 6 6 5 6 6 6 5 5 5 7 7 7 6 5 5 4 4 3 2 2
14 14 12 11 11 11 12 12 12 12 11 10 9 10 9 9 7 7 7 6 6 6 6 5 5 5 5 5 5 4 4 5 6 6 5 4 4 4 4 3 2 1 1
13 12 12 12 12 13 13 12 11 11 10 10 9 9 7 6 6 6 6 5 5 5 5 5 4 3 4 4 4 4 3 4 3 3 4 4 4 3 2 2 1 1 0
13 13 13 13 12 11 12 12 12 12 12 10 9 8 7 6 6 6 5 5 4 4 4 4 4 3 2 3 3 3 3 2 2 2 2 2 2 2 2 1 1 0 -0
13 13 12 12 11 11 11 10 11 10 9 8 8 7 7 7 6 6 6 5 4 3 3 3 2 2 2 2 2 1 1 1 1 1 1 1 1 1 1 1 0 -0 -0
12 11 11 11 10 10 9 9 8 8 8 8 7 7 6 6 5 5 4 4 3 3 3 3 2 1 1 0 1 1 1 1 0 0 0 0 0 1 0 0 -0 -0 -1
Height
1526 1527 1529 1532 1535 1539 1544 1546 1549 1550 1551 1553 1554 1555 1555 1555 1555 1556 1556 1556 1556 1557 1556 1556 1555 1555 1554 1554 1554 1554 1555 1553 1553 1553 1552 1553 1552 1552 1552 1552 1553 1550 1549
1526 1527 1531 1534 1536 1540 1544 1546 1549 1551 1552 1554 1555 1556 1555 1557 1556 1558 1558 1558 1559 1558 1557 1559 1558 1558 1557 1557 1556 1555 1553 1552 1553 1553 1553 1552 1551 1552 1552 1552 1551 1550 1549
1526 1528 1531 1535 1537 1540 1544 1548 1548 1553 1554 1555 1557 1557 1558 1558 1559 1559 1560 1560 1560 1560 1558 1559 1558 1559 1559 1559 1557 1556 1555 1553 1553 1554 1555 1554 1551 1553 1553 1552 1551 1550 1549
1527 1527 1532 1537 1538 1541 1546 1550 1551 1555 1555 1557 1558 1559 1559 1560 1561 1563 1562 1562 1562 1562 1561 1561 1561 1561 1560 1559 1559 1557 1556 1555 1555 1556 1557 1558 1553 1553 1552 1552 1551 1550 1549
1527 1531 1534 1540 1540 1543 1547 1551 1552 1556 1557 1560 1559 1561 1562 1562 1563 1564 1564 1564 1563 1563 1563 1565 1563 1564 1562 1562 1561 1560 1559 1557 1556 1557 1558 1557 1557 1552 1550 1551 1550 1550 1550
1529 1530 1536 1539 1544 1546 1549 1551 1555 1556 1560 1560 1562 1562 1563 1565 1564 1564 1566 1566 1564 1566 1566 1567 1565 1565 1565 1565 1564 1563 1561 1560 1559 1559 1559 1557 1554 1553 1550 1550 1550 1550 1549
1525 1530 1536 1540 1544 1548 1551 1553 1557 1559 1561 1562 1563 1563 1564 1566 1565 1566 1567 1568 1567 1568 1568 1567 1567 1567 1565 1565 1566 1564 1562 1562 1561 1561 1561 1556 1554 1553 1551 1550 1549 1548 1549
1527 1530 1536 1542 1546 1549 1551 1553 1558 1560 1561 1563 1563 1565 1567 1566 1568 1568 1570 1569 1570 1570 1570 1569 1568 1570 1567 1567 1566 1565 1564 1563 1563 1562 1562 1555 1555 1553 1552 1550 1549 1548 1547
1526 1532 1538 1543 1548 1550 1553 1555 1558 1561 1563 1564 1565 1566 1567 1568 1569 1571 1572 1573 1571 1571 1571 1571 1570 1571 1569 1568 1566 1566 1565 1563 1563 1563 1562 1557 1555 1554 1552 1551 1550 1549 1547
1510 1523 1539 1545 1548 1551 1554 1556 1559 1562 1564 1566 1567 1569 1570 1570 1571 1573 1574 1574 1574 1571 1573 1571 1572 1572 1570 1568 1567 1567 1565 1564 1565 1563 1560 1557 1556 1554 1552 1551 1550 1549 1548
1532 1535 1543 1549 1551 1556 1555 1558 1561 1562 1565 1567 1567 1569 1572 1573 1574 1575 1575 1576 1575 1574 1574 1573 1573 1572 1571 1569 1567 1567 1565 1566 1564 1563 1558 1557 1555 1553 1551 1550 1549 1548 1546
1534 1539 1545 1550 1554 1557 1562 1561 1564 1564 1567 1569 1570 1572 1574 1573 1576 1578 1577 1577 1576 1575 1575 1574 1574 1572 1571 1571 1569 1567 1566 1564 1564 1563 1557 1556 1555 1552 1550 1548 1547 1546 1545
1540 1543 1548 1551 1555 1560 1561 1564 1567 1567 1570 1570 1571 1574 1575 1575 1577 1579 1580 1579 1579 1577 1578 1576 1575 1574 1570 1568 1567 1565 1563 1563 1563 1562 1555 1554 1553 1551 1549 1547 1545 1544 1542
1543 1545 1547 1551 1555 1559 1562 1565 1566 1569 1572 1572 1574 1574 1576 1578 1577 1579 1580 1580 1578 1578 1576 1575 1575 1572 1569 1567 1565 1563 1561 1560 1560 1559 1553 1551 1550 1549 1547 1545 1542 1541 1539
1545 1548 1550 1553 1556 1559 1563 1563 1566 1566 1568 1570 1571 1572 1575 1576 1574 1575 1576 1578 1578 1577 1575 1574 1573 1571 1568 1566 1563 1561 1559 1558 1557 1556 1555 1549 1546 1545 1544 1542 1540 1538 1536
1546 1548 1551 1555 1556 1560 1561 1563 1564 1564 1567 1568 1569 1572 1573 1574 1573 1571 1575 1576 1575 1574 1571 1571 1569 1567 1565 1563 1561 1559 1557 1555 1554 1553 1551 1549 1544 1541 1539 1538 1536 1535 1533
1546 1548 1551 1553 1555 1557 1557 1559 1561 1564 1566 1567 1568 1569 1571 1571 1571 1570 1571 1572 1572 1570 1570 1570 1567 1565 1563 1561 1558 1556 1554 1552 1551 1550 1547 1546 1543 1538 1536 1535 1532 1530 1528
1545 1548 1550 1552 1554 1554 1557 1558 1560 1563 1562 1564 1565 1566 1567 1567 1569 1570 1571 1571 1569 1569 1568 1566 1564 1562 1560 1557 1555 1552 1550 1548 1547 1545 1543 1541 1539 1539 1535 1532 1529 1527 1523
1545 1548 1549 1550 1551 1553 1555 1557 1557 1561 1563 1564 1565 1564 1567 1567 1568 1570 1569 1567 1567 1567 1565 1563 1561 1559 1557 1554 1551 1548 1546 1544 1542 1540 1538 1537 1534 1533 1532 1530 1526 1525 1520
1544 1547 1547 1549 1549 1550 1553 1555 1558 1560 1561 1563 1566 1567 1568 1567 1566 1567 1567 1564 1564 1564 1562 1560 1557 1555 1553 1550 1547 1544 1541 1540 1537 1535 1533 1532 1531 1530 1528 1525 1524 1523 1518
1543 1546 1545 1546 1547 1550 1553 1556 1559 1560 1563 1565 1565 1565 1565 1565 1564 1564 1565 1564 1562 1561 1559 1556 1554 1551 1548 1546 1542 1540 1538 1535 1533 1531 1529 1528 1526 1525 1524 1522 1520 1517 1515
1542 1544 1544 1545 1547 1551 1555 1557 1559 1562 1563 1564 1563 1562 1563 1562 1562 1563 1561 1561 1559 1557 1555 1552 1550 1547 1545 1544 1541 1537 1533 1531 1529 1526 1524 1524 1523 1521 1519 1517 1515 1514 1511
1540 1541 1544 1546 1550 1553 1554 1556 1558 1559 1560 1562 1563 1563 1561 1561 1561 1560 1559 1558 1555 1553 1551 1549 1546 1544 1542 1540 1539 1537 1532 1527 1524 1525 1522 1520 1517 1516 1514 1513 1513 1511 1507
1539 1542 1545 1548 1550 1551 1554 1556 1558 1559 1559 1560 1562 1561 1561 1560 1558 1557 1556 1553 1551 1549 1546 1545 1544 1541 1539 1536 1535 1534 1531 1527 1522 1517 1518 1516 1514 1512 1511 1510 1508 1506 1503
1538 1541 1545 1547 1549 1550 1552 1554 1556 1557 1559 1559 1560 1558 1558 1557 1555 1554 1552 1550 1546 1545 1542 1540 1538 1537 1536 1534 1531 1529 1527 1524 1522 1519 1512 1512 1510 1508 1507 1505 1503 1501 1499
1537 1540 1542 1545 1547 1549 1550 1551 1553 1555 1556 1557 1556 1556 1553 1552 1551 1549 1546 1544 1542 1540 1537 1536 1534 1532 1531 1529 1527 1526 1524 1522 1519 1516 1513 1510 1507 1504 1503 1501 1499 1496 1493
Wind_Speed
24 26 25 24 23 21 20 17 15 13 11 10 9 8 7 6 6 6 7 8 8 8 10 10 10 10 10 10 10 9 9 10 9 8 6 9 10 9 8 6 4 9 9
27 28 26 25 24 21 18 16 13 11 10 9 8 6 6 6 7 8 9 9 9 10 11 11 11 11 11 10 10 11 11 12 12 12 11 8 7 9 8 9 9 10 10
26 27 27 25 23 20 17 14 13 10 10 9 7 7 7 7 8 9 9 9 9 9 10 10 10 10 11 11 12 12 12 12 13 16 13 4 9 11 9 10 11 10 10
27 29 27 23 22 19 16 13 11 11 10 8 7 8 7 9 9 9 9 9 9 9 9 10 11 13 14 14 13 13 14 14 15 15 8 7 10 11 9 11 11 11 9
23 23 24 22 19 18 15 13 12 11 9 7 8 8 8 10 10 9 9 10 11 11 12 13 14 15 17 18 17 18 17 17 17 14 8 7 7 9 9 10 11 11 10
25 24 22 21 18 16 14 12 10 10 8 9 9 9 10 10 10 10 11 12 14 14 14 14 16 18 19 20 21 20 19 16 16 10 8 7 8 8 9 10 10 10 9
21 22 23 20 17 15 12 11 11 10 9 9 9 10 10 9 10 11 13 13 15 14 14 16 17 17 19 21 22 22 20 16 15 12 10 6 11 9 8 8 8 8 9
16 18 21 18 16 14 12 13 12 9 8 9 8 9 9 9 9 11 12 13 13 13 12 13 14 13 15 17 19 22 20 16 12 11 9 10 12 11 10 9 8 8 9
31 24 21 19 16 14 13 12 10 9 8 8 8 10 9 9 9 8 9 9 9 10 9 9 9 9 11 14 17 21 18 17 16 11 10 6 15 11 11 11 11 10 10
26 28 22 17 14 14 14 12 10 8 7 8 9 9 8 7 7 6 5 3 4 6 5 5 5 7 11 16 19 21 17 18 16 11 10 13 16 13 11 10 10 11 10
17 18 17 14 11 9 6 10 8 7 9 8 9 9 9 6 4 5 2 2 1 2 3 4 5 9 11 15 15 20 16 14 13 13 12 14 14 13 14 14 12 11 12
17 19 15 18 16 12 9 9 6 7 6 6 5 6 5 4 3 5 2 2 4 4 6 8 9 10 12 10 11 14 13 16 14 14 15 17 16 14 15 16 16 15 13
15 15 16 17 18 12 9 8 7 7 6 5 5 5 2 1 2 4 4 6 6 9 6 9 10 8 11 12 12 13 14 15 13 13 19 21 18 15 16 16 16 17 16
12 11 13 13 15 11 9 9 9 7 6 4 0 0 1 3 0 3 5 6 9 8 10 9 10 12 12 13 14 14 15 15 14 13 20 20 21 18 16 17 17 18 18
14 12 12 13 12 12 11 11 10 9 8 7 5 6 6 7 8 4 7 10 11 10 10 11 12 12 14 15 15 16 15 16 16 14 13 23 23 23 22 19 20 20 19
13 13 14 13 13 13 12 12 10 7 3 4 8 8 10 10 13 28 18 12 12 10 10 10 13 15 15 16 17 17 18 18 17 17 15 19 23 22 24 23 21 21 21
13 14 15 15 15 15 16 15 18 13 4 10 12 14 14 18 20 10 15 16 10 9 10 11 13 13 15 18 18 18 19 18 19 19 19 17 19 22 21 23 27 25 25
13 14 15 15 16 15 16 18 9 23 24 14 16 13 13 10 9 9 7 5 12 9 9 10 12 14 15 17 19 20 20 21 21 22 21 20 15 16 20 20 23 27 29
14 15 15 15 17 17 17 12 9 14 17 12 5 3 4 4 5 2 4 6 10 8 10 12 13 15 18 21 23 22 22 24 22 22 20 19 16 16 15 19 22 22 19
13 14 14 17 15 17 15 12 12 10 6 6 4 4 4 1 4 1 5 11 10 9 12 13 16 17 20 23 24 22 22 20 22 20 15 15 16 16 17 16 21 19 23
14 14 18 16 14 9 9 9 8 9 8 8 6 6 2 3 6 9 4 8 10 11 13 16 19 20 20 20 21 21 21 23 20 16 22 15 13 17 19 22 20 19 22
13 14 12 11 11 9 9 10 9 8 8 8 6 2 3 5 5 4 9 9 11 14 17 18 18 19 17 16 19 21 24 24 19 15 17 19 24 19 21 20 22 21 21
13 14 12 12 12 12 12 11 11 10 7 5 1 0 4 4 5 8 10 12 15 16 17 18 17 15 17 17 16 18 24 23 25 23 23 24 25 23 21 22 22 21 21
14 14 14 16 15 12 11 10 9 5 5 4 1 2 3 7 9 11 13 15 16 17 18 17 15 15 15 17 18 20 21 22 24 29 22 21 21 23 22 23 22 21 23
18 18 17 15 12 11 10 8 6 5 4 2 1 4 6 8 11 12 15 16 18 18 17 16 17 15 15 18 21 20 18 18 19 22 27 25 23 23 22 22 21 23 24
18 17 16 14 13 12 11 10 10 8 4 1 3 5 6 10 11 12 14 16 17 18 17 16 16 15 18 18 18 16 17 17 19 20 23 25 27 26 23 22 24 24 24
Wind_Direction
153 160 154 148 143 143 142 139 137 132 128 127 118 111 106 100 85 75 76 76 76 75 71 64 60 55 49 43 39 34 27 24 20 12 10 4 341 331 343 358 27 348 359
152 157 154 150 147 146 144 142 136 136 134 129 127 126 118 101 99 100 98 95 89 78 70 62 57 52 48 45 43 35 32 32 32 38 54 4 14 336 336 338 339 349 2
154 157 155 155 151 146 145 146 142 143 140 141 138 130 119 114 111 113 106 92 75 66 62 58 56 52 44 33 29 27 26 31 39 52 53 31 332 339 347 345 342 344 347
154 157 156 158 154 148 148 151 147 150 148 148 142 133 126 122 120 113 97 80 69 64 61 60 56 50 49 45 39 34 32 40 52 56 35 43 357 338 4 5 1 357 354
155 149 156 162 155 149 151 152 154 149 147 148 140 141 137 130 123 106 89 84 84 79 74 70 65 58 56 53 50 45 43 57 49 44 24 44 25 352 9 4 357 354 353
158 156 159 161 153 150 154 152 148 148 151 152 155 148 140 132 113 98 95 95 91 88 83 75 68 62 56 51 46 42 41 60 45 38 29 22 16 1 355 349 353 354 350
155 154 160 155 151 156 155 146 155 157 158 157 153 147 136 125 113 109 105 96 93 89 83 76 68 62 53 43 35 29 25 38 40 32 28 345 10 8 1 350 343 338 341
134 160 154 151 157 157 155 156 161 159 159 158 151 143 135 123 117 115 111 106 97 88 83 78 70 56 46 35 29 23 19 27 33 11 23 349 10 3 -0 357 342 330 328
160 164 152 150 158 156 156 158 158 163 163 156 153 147 135 125 123 119 122 117 105 96 89 77 62 48 33 23 21 18 32 22 19 355 354 315 346 352 354 354 350 343 336
188 132 142 153 150 155 163 161 163 162 157 156 157 140 126 114 116 119 114 130 107 93 72 57 32 19 13 10 4 12 30 11 351 352 330 313 325 328 331 332 330 333 335
120 124 131 135 137 132 155 160 163 163 159 149 145 139 106 85 61 16 288 190 82 30 1 352 349 352 16 357 353 358 12 350 359 343 312 304 318 314 310 308 307 309 313
123 123 140 155 147 143 156 151 150 133 123 118 119 140 100 161 196 192 295 299 309 314 328 339 342 358 356 339 331 338 340 348 342 342 308 305 318 313 308 304 302 300 299
138 153 162 160 145 150 156 141 138 129 141 143 146 124 222 92 305 346 302 335 325 317 329 324 322 325 324 333 329 334 336 339 328 331 307 305 309 307 306 305 303 299 297
145 156 163 163 137 149 146 135 135 132 118 94 139 98 290 12 222 307 316 303 315 303 303 310 312 317 324 326 326 326 327 328 319 324 307 308 305 301 300 302 301 299 296
151 162 160 152 150 146 135 131 131 117 150 170 185 237 218 222 227 234 263 299 291 294 303 306 307 307 316 318 316 318 319 319 311 313 302 302 305 305 300 296 297 298 297
158 155 152 154 149 141 144 135 127 111 112 230 238 243 250 257 252 284 271 264 258 289 276 300 301 319 316 313 313 314 311 310 305 304 299 304 302 306 305 302 297 296 297
163 160 157 156 152 153 165 138 120 82 11 291 282 270 260 266 270 257 250 270 278 281 304 304 307 310 312 310 307 308 308 305 299 299 297 297 293 305 300 302 299 296 295
170 170 165 162 163 176 168 170 184 294 261 299 280 269 293 248 243 254 282 278 265 303 308 308 314 312 314 312 311 307 306 303 296 292 295 291 274 284 304 306 305 293 298
179 176 177 168 188 186 193 209 252 251 247 284 174 154 215 212 230 200 245 267 292 305 310 316 311 314 311 310 309 303 300 300 295 295 291 284 285 288 281 296 309 313 311
187 182 179 179 196 209 208 227 216 266 200 173 147 180 136 236 269 266 295 295 305 312 308 305 310 309 307 307 304 297 305 297 295 294 292 281 283 284 291 291 305 305 296
182 184 199 197 208 201 185 185 184 159 160 165 167 166 194 265 309 308 306 311 312 311 307 310 307 306 307 306 301 302 301 303 298 294 293 282 288 295 293 301 299 298 303
182 186 188 176 168 167 166 160 161 168 166 171 169 224 289 305 302 329 308 312 305 309 311 309 303 302 303 307 302 303 308 305 298 297 305 298 297 290 293 295 303 301 300
178 174 167 163 159 156 163 161 159 164 167 156 169 334 292 318 326 326 314 309 309 310 307 305 302 295 301 297 300 301 305 303 304 301 300 297 294 294 295 298 297 300 302
158 158 162 157 161 163 156 169 174 183 179 168 198 284 316 318 320 316 310 310 308 305 303 301 299 287 298 296 299 296 294 296 302 305 302 298 297 296 296 293 294 296 301
150 149 154 156 154 149 152 150 143 144 124 138 308 327 317 310 313 309 308 305 303 301 295 289 287 286 288 295 300 299 295 296 297 299 305 303 298 295 294 295 295 297 299
152 153 153 150 148 142 137 127 130 129 127 173 321 322 312 317 313 310 309 307 300 296 294 287 281 276 287 290 295 291 292 296 299 302 304 303 303 297 296 297 297 298 298